TimePDT,TemperatureF,Dew PointF,Humidity,Sea Level PressureIn,VisibilityMPH,Wind Direction,Wind SpeedMPH,Gust SpeedMPH,PrecipitationIn,Events,Conditions,WindDirDegrees,DateUTC
12:00 AM,53.6,51.8,94,29.94,15.0,SW,9.2,-,N/A,,Overcast,220,2012-10-30 07:00:00
12:05 AM,53.6,51.8,94,29.94,7.0,SSW,10.4,-,N/A,Rain,Light Rain Showers,200,2012-10-30 07:05:00
12:36 AM,53.6,51.8,94,29.94,15.0,WSW,9.2,-,N/A,,Overcast,240,2012-10-30 07:36:00
1:00 AM,53.6,51.8,94,29.94,8.0,SW,8.1,-,N/A,Rain,Light Rain Showers,220,2012-10-30 08:00:00
2:00 AM,53.6,51.8,94,29.91,8.0,SSW,8.1,-,N/A,Rain,Light Rain Showers,210,2012-10-30 09:00:00
3:00 AM,53.6,51.8,94,29.91,10.0,SW,6.9,-,N/A,Rain,Light Rain,230,2012-10-30 10:00:00
4:00 AM,53.6,51.8,94,29.90,7.0,SW,9.2,-,N/A,Rain,Light Rain,230,2012-10-30 11:00:00
5:00 AM,53,53,99,29.88,7,WSW,4.6,,,Rain,Light Rain,250,2012-10-30 12:00:00
5:00 AM,53.6,53.6,100,29.88,8.0,WSW,4.6,-,N/A,Rain,Light Rain,250,2012-10-30 12:00:00
6:00 AM,53.6,51.8,94,29.87,10.0,Calm,Calm,-,N/A,Rain,Light Rain,0,2012-10-30 13:00:00
7:00 AM,51.8,51.8,100,29.86,10.0,North,3.5,-,N/A,Rain,Light Rain,10,2012-10-30 14:00:00
8:00 AM,51.8,51.8,100,29.86,10.0,Calm,Calm,-,N/A,,Overcast,0,2012-10-30 15:00:00
9:00 AM,51.8,51.8,100,29.88,20.0,Calm,Calm,-,N/A,,Overcast,0,2012-10-30 16:00:00
10:00 AM,53.6,53.6,100,29.89,15.0,Calm,Calm,-,N/A,,Overcast,0,2012-10-30 17:00:00
11:00 AM,54,53,96,29.88,15,NNE,4.6,,,,Partly Cloudy,20,2012-10-30 18:00:00
11:00 AM,53.6,53.6,100,29.88,15.0,NNE,4.6,-,N/A,,Overcast,30,2012-10-30 18:00:00
12:00 PM,55.4,53.6,94,29.88,15.0,NNE,4.6,-,N/A,,Overcast,30,2012-10-30 19:00:00
1:00 PM,55.4,53.6,94,29.87,10.0,North,3.5,-,N/A,,Overcast,10,2012-10-30 20:00:00
1:10 PM,55.4,53.6,94,29.87,10.0,NNE,3.5,-,N/A,Rain,Light Rain Showers,20,2012-10-30 20:10:00
2:00 PM,53.6,51.8,94,29.86,10.0,NE,4.6,-,N/A,Rain,Light Rain Showers,50,2012-10-30 21:00:00
3:00 PM,53.6,51.8,94,29.85,8.0,NE,4.6,-,N/A,Rain,Light Rain,50,2012-10-30 22:00:00
4:00 PM,51.8,51.8,100,29.84,8.0,NE,3.5,-,N/A,Rain,Light Rain,40,2012-10-30 23:00:00
5:00 PM,52,51,95,29.83,7,NE,5.8,,,Rain,Light Rain,50,2012-10-31 00:00:00
5:00 PM,51.8,51.8,100,29.83,8.0,NE,5.8,-,N/A,Rain,Light Rain,50,2012-10-31 00:00:00
6:00 PM,51.8,51.8,100,29.81,10.0,NE,4.6,-,N/A,Rain,Light Rain,40,2012-10-31 01:00:00
7:00 PM,51.8,50.0,94,29.80,8.0,ENE,6.9,-,N/A,Rain,Light Rain,70,2012-10-31 02:00:00
8:00 PM,51.8,50.0,94,29.79,8.0,NE,8.1,-,N/A,Rain,Light Rain,50,2012-10-31 03:00:00
9:00 PM,51.8,50.0,94,29.78,8.0,ENE,6.9,-,N/A,Rain,Light Rain,60,2012-10-31 04:00:00
10:00 PM,51.8,50.0,94,29.78,6.0,East,6.9,-,N/A,Rain,Light Rain,90,2012-10-31 05:00:00
11:00 PM,51,50,95,29.78,6,ENE,8.1,,,Rain,Light Rain,70,2012-10-31 06:00:00
11:00 PM,51.8,50.0,94,29.78,6.0,East,8.1,-,N/A,Rain,Light Rain,80,2012-10-31 06:00:00